sat.trackr.live / text

‹ back to catalog

2025-155G

NORAD 64882 · 2025-155G

PAYLOAD ACTIVE UNKNOWN

§ Identity

Operator
Country
TBD
Launch date
2025-07-25
Launch site
VOSTO
Launch vehicle
Mass (kg)
RCS (m²)

External: N2YO · Heavens-Above · Gunter

§ Orbital elements

Epoch: 2026-05-24T20:50:15.455616Z

Period
94.18 min
Inclination
97.4565°
Eccentricity
0.0005166
Mean motion
15.29065720 rev/d
Perigee alt
475.1 km
Apogee alt
482.1 km
Semi-major
6,856.7 km
B*
2.6230e-4
RAAN
113.3282°
Arg perigee
257.3947°
Mean anomaly
102.6715°
Rev number
7,719

§ Raw data

2025-155G1 64882U 25155G   26144.86823444  .00007328  00000+0  26230-3 0  99972 64882  97.4565 113.3282 0005166 257.3947 102.6715 15.29065720 77194

JSON: /api/v1/satellites/64882 · /tle

For live sub-satellite position, see the globe view (requires WebGL).

§ Visibility from observer

Set your observer location to see the next 7 days of passes ≥ 10°. The values pass through the URL so the page stays shareable.

No JS? Fill the form by hand. The geolocation button needs JavaScript.